Wind_Speed
73 71 71 75 72 75 75 77 66 58 45 42 42 45 51 54 52 51 54 56 59 62 56 56 54 49 42 36 30 33 30 28 28 18 16 13 12 21 26 26 21 18 11 8
74 73 78 73 74 75 71 57 43 41 42 42 40 42 43 43 44 45 43 45 46 49 52 47 45 38 29 25 27 29 23 24 22 15 20 18 15 15 18 23 25 21 17 13
75 79 74 74 71 64 51 45 38 39 39 38 38 42 41 40 42 44 45 44 45 47 41 40 34 25 22 22 27 24 18 20 16 11 19 20 18 17 10 16 21 18 21 18
75 74 70 61 49 47 38 34 33 31 32 32 36 38 33 36 41 41 40 39 39 35 33 31 24 18 18 23 24 21 16 13 9 8 12 14 14 21 15 12 16 19 20 21
59 58 47 39 43 31 27 25 28 28 28 28 28 31 35 36 37 34 33 29 31 28 29 25 17 15 17 22 20 16 14 11 7 5 6 13 11 13 16 14 17 17 17 18
42 42 35 35 27 25 23 24 28 29 31 27 31 30 31 31 31 32 27 31 27 27 26 20 13 12 18 20 18 12 11 6 9 4 7 12 16 13 15 15 16 14 10 13
44 38 30 29 24 25 22 25 30 32 33 34 32 32 32 29 28 29 26 29 29 27 23 17 10 14 18 18 16 10 9 4 7 6 6 8 13 20 20 19 21 27 17 13
37 33 36 31 23 26 21 27 31 31 33 36 34 32 32 27 26 26 28 29 27 20 20 9 11 14 16 15 13 8 7 2 9 8 10 11 12 16 23 29 30 35 23 17
42 38 40 27 28 23 22 25 28 29 33 36 37 35 32 24 24 25 29 29 15 17 17 7 11 14 14 13 11 5 5 2 10 12 12 13 20 21 22 29 27 34 34 23
43 44 43 38 25 25 26 27 28 30 33 31 39 39 33 24 22 22 27 20 11 13 13 7 10 13 13 12 10 5 4 2 10 17 14 11 20 24 25 26 25 28 31 34
52 50 47 42 30 34 30 28 31 32 32 31 40 42 32 28 21 22 24 20 6 9 9 7 9 11 12 12 9 4 5 2 9 18 13 13 18 22 22 25 23 26 26 29
57 58 50 50 41 34 32 34 34 34 31 35 38 42 32 28 20 22 23 20 4 8 12 10 8 11 12 11 11 5 4 2 4 22 18 17 12 20 22 21 23 27 24 22
67 56 56 54 38 37 38 40 35 34 34 36 38 41 28 29 21 22 26 19 5 7 14 13 12 9 11 12 12 6 4 3 3 21 22 20 14 12 16 24 16 20 19 19
74 68 58 51 51 50 42 42 34 34 35 37 41 41 29 29 24 16 19 17 5 11 14 10 15 8 8 10 11 8 5 3 4 11 24 22 21 15 15 19 23 19 17 19
79 70 63 60 59 53 49 45 39 35 40 38 39 40 36 29 26 16 21 20 10 11 10 9 11 7 5 8 9 8 8 6 4 4 25 25 24 18 19 15 19 17 13 13
82 73 70 67 64 58 54 47 37 37 44 41 37 43 36 28 24 16 19 21 12 9 10 11 9 8 5 7 7 6 5 7 4 5 18 25 24 24 24 23 18 20 16 12
84 79 74 67 66 66 59 44 42 43 45 42 37 43 35 29 25 19 17 18 11 12 14 10 9 12 6 5 6 5 3 6 5 5 8 23 20 18 24 20 22 22 21 18
84 81 77 72 76 70 52 50 46 45 43 40 41 39 37 29 25 21 18 17 12 12 15 14 11 10 11 4 6 5 2 4 8 6 9 13 18 18 18 18 19 20 18 21
88 84 80 80 72 63 58 53 50 47 48 48 41 39 37 32 27 29 19 21 17 14 16 16 12 11 9 6 6 8 6 4 8 11 8 10 16 18 19 22 18 21 22 22
92 87 82 79 67 60 60 55 55 51 47 47 46 42 38 31 26 31 21 22 21 19 18 20 18 16 15 13 11 9 11 9 8 10 11 13 13 13 16 19 19 21 20 19
94 91 85 75 68 64 63 56 56 52 48 51 50 43 37 36 37 26 27 26 23 22 19 21 22 18 19 18 13 12 13 14 12 12 12 12 18 15 15 13 12 14 15 16
97 92 85 77 72 68 63 58 56 56 52 57 53 47 41 41 37 29 25 27 28 27 22 24 26 23 20 18 15 15 14 17 16 16 16 14 14 17 21 19 17 16 16 17
103 96 88 80 72 69 66 62 60 58 57 59 55 50 44 42 40 32 26 28 31 30 27 25 24 26 24 21 16 16 17 18 18 19 18 18 16 16 16 18 19 19 19 20
104 98 94 84 77 72 71 69 65 61 59 61 58 52 50 45 39 33 28 28 32 31 32 27 28 32 28 24 22 18 19 20 19 17 20 21 20 19 18 18 18 17 18 19
107 100 95 90 83 79 73 70 68 66 64 66 61 58 52 47 40 32 31 30 34 32 34 35 30 32 36 32 24 22 22 20 18 19 18 19 20 19 21 22 22 22 24 23
109 106 100 91 90 83 78 75 72 69 66 66 64 60 55 49 44 38 34 32 38 36 32 35 31 36 32 36 30 26 26 24 21 20 19 19 19 18 18 18 18 20 22 22
Wind_Direction
273 278 286 283 290 293 294 296 292 285 285 288 286 283 281 285 289 290 289 288 288 291 295 300 302 304 304 308 321 322 329 330 336 341 9 7 11 8 7 16 32 41 48 62
275 279 280 290 289 288 291 282 275 284 284 286 289 284 288 294 294 295 295 291 292 296 299 302 304 302 306 319 323 323 335 332 336 351 13 27 17 1 354 14 33 39 55 62
277 280 283 283 284 281 273 273 281 281 283 285 284 285 292 296 295 294 292 293 296 298 303 306 298 300 316 326 319 329 339 335 340 357 15 15 23 23 10 5 41 42 40 47
271 272 273 274 269 266 271 279 283 286 286 294 285 284 285 289 292 298 301 304 296 300 309 305 294 308 323 322 320 334 344 333 329 20 15 20 16 25 28 20 51 49 46 58
259 264 259 254 260 267 275 282 289 294 301 308 314 297 288 292 296 301 309 295 301 310 310 298 298 314 324 320 326 340 356 314 280 31 53 26 55 31 32 53 68 62 59 75
246 246 250 253 258 266 275 287 293 299 306 309 313 319 305 306 298 306 311 301 309 313 313 294 305 323 321 321 331 347 354 329 238 116 81 28 47 47 55 71 59 55 57 55
239 245 249 251 256 265 281 291 297 304 306 311 312 314 321 311 307 308 306 305 313 317 307 294 311 322 324 321 335 350 358 311 195 135 132 56 72 86 82 79 69 65 89 79
247 248 245 246 255 263 279 283 291 303 307 309 320 325 325 314 313 311 308 303 309 317 287 297 311 314 326 326 339 353 3 290 174 129 145 91 99 106 88 78 73 62 69 78
242 245 251 253 252 262 269 276 287 297 303 310 316 323 331 317 310 311 309 307 306 309 280 295 304 316 323 333 336 351 2 315 173 152 137 106 106 121 104 91 81 66 59 62
246 251 254 254 261 264 266 273 282 291 297 313 314 316 327 310 306 308 306 297 307 299 271 294 298 318 323 342 330 332 354 354 185 166 152 105 110 122 114 103 85 76 69 66
238 244 249 255 256 255 267 274 278 283 297 306 304 312 324 311 308 304 298 293 318 294 255 275 293 319 330 344 323 325 352 352 198 171 168 136 119 131 118 107 101 89 76 64
242 241 244 251 251 261 266 268 271 282 295 299 303 307 321 310 306 301 296 298 291 293 251 276 293 321 327 335 327 295 330 288 206 180 170 154 149 129 122 116 107 98 94 80
245 244 248 254 256 260 257 261 273 282 288 293 298 302 317 308 294 297 297 298 280 300 265 262 297 320 320 324 324 284 294 315 310 194 186 176 169 166 149 143 123 99 99 94
241 242 246 251 248 248 258 264 267 276 286 289 291 300 316 307 295 295 297 290 275 273 285 273 290 309 309 311 319 311 264 313 280 207 194 178 176 166 165 158 148 135 121 106
239 242 244 246 249 251 253 257 264 278 280 284 290 296 304 311 300 295 291 284 240 258 264 268 285 297 306 298 312 316 278 276 268 247 194 183 185 188 173 160 155 151 153 133
237 238 240 244 247 251 252 253 265 271 273 277 286 289 301 308 294 287 283 295 237 225 243 250 258 275 306 287 305 315 301 262 268 249 196 195 194 206 192 181 175 173 176 157
235 238 241 242 244 247 247 253 256 260 267 273 281 282 296 305 301 279 281 278 242 227 221 229 244 257 258 273 282 305 315 240 252 239 187 193 190 189 196 208 201 202 192 199
233 236 238 239 240 244 244 249 250 255 265 269 270 278 288 301 296 276 273 264 240 239 229 220 235 264 259 249 249 273 283 213 218 239 214 193 198 204 199 204 197 204 209 216
230 231 234 238 241 242 242 246 247 253 255 262 270 273 278 290 293 280 258 266 236 235 228 226 229 228 230 252 249 234 238 215 206 223 226 221 211 211 206 206 223 221 219 222
230 231 232 236 237 241 241 240 244 250 257 260 261 265 270 280 275 280 279 260 255 230 230 234 235 239 244 232 243 234 230 218 211 208 226 223 214 202 212 218 212 209 217 219
230 231 233 233 234 233 236 237 244 250 248 255 257 262 266 271 274 284 279 256 257 231 238 233 234 232 247 241 238 242 232 227 221 213 205 219 224 219 215 219 221 219 214 214
230 232 232 231 234 234 236 237 240 241 246 252 256 259 261 264 274 272 278 252 252 255 236 242 235 225 246 242 237 236 236 231 221 222 221 213 216 229 236 232 227 231 236 237
229 231 232 232 231 232 233 235 238 243 246 251 254 257 260 264 271 278 268 261 248 257 254 242 233 226 240 238 235 232 232 239 227 223 223 226 225 223 225 232 236 237 239 240
229 231 234 234 234 234 234 235 237 240 244 249 252 254 256 260 266 272 269 261 246 250 249 244 235 232 235 236 234 232 236 241 237 228 226 227 232 232 228 229 229 231 236 237
228 230 232 234 234 234 234 236 237 239 242 247 250 252 255 259 261 261 263 256 250 247 251 247 245 241 237 239 236 234 231 238 243 234 231 226 224 231 236 236 237 238 241 243
229 229 231 231 231 232 232 233 235 237 239 242 247 250 252 254 255 256 258 253 245 235 245 250 247 240 239 241 235 230 236 224 234 239 233 240 238 237 236 237 239 244 249 251
Height
10754 10760 10758 10756 10762 10760 10757 10756 10750 10748 10748 10745 10741 10738 10731 10725 10723 10720 10720 10719 10712 10706 10701 10695 10688 10681 10676 10672 10665 10661 10656 10649 10644 10640 10635 10628 10623 10619 10612 10607 10599 10594 10590 10589
10746 10748 10744 10751 10750 10749 10747 10747 10742 10741 10738 10736 10733 10728 10723 10720 10715 10712 10711 10706 10703 10699 10693 10686 10680 10673 10669 10665 10660 10657 10652 10648 10643 10640 10636 10629 10624 10620 10618 10613 10606 10599 10594 10592
10728 10730 10738 10740 10740 10737 10737 10736 10736 10733 10730 10729 10725 10717 10717 10714 10708 10705 10703 10700 10696 10691 10685 10678 10672 10668 10664 10660 10657 10653 10648 10645 10643 10641 10637 10632 10626 10624 10621 10617 10613 10605 10600 10596
10724 10724 10725 10731 10729 10728 10728 10730 10727 10725 10723 10721 10715 10712 10710 10705 10703 10702 10698 10693 10686 10682 10677 10671 10667 10664 10660 10657 10654 10650 10646 10644 10643 10642 10639 10635 10629 10626 10624 10621 10617 10612 10607 10602
10711 10714 10716 10718 10717 10721 10721 10722 10720 10718 10716 10713 10708 10704 10699 10699 10697 10696 10691 10684 10680 10676 10670 10666 10663 10660 10656 10654 10651 10647 10644 10644 10643 10642 10640 10637 10633 10632 10629 10625 10621 10617 10613 10610
10700 10701 10706 10707 10711 10712 10714 10714 10712 10710 10708 10705 10702 10698 10693 10692 10688 10687 10685 10679 10675 10671 10666 10663 10659 10657 10654 10652 10649 10644 10644 10643 10643 10642 10642 10640 10636 10636 10634 10630 10628 10623 10619 10616
10683 10691 10697 10700 10703 10704 10707 10706 10705 10704 10701 10699 10695 10692 10690 10687 10684 10681 10678 10674 10671 10666 10663 10660 10657 10655 10653 10650 10647 10643 10643 10641 10642 10643 10643 10643 10641 10640 10638 10636 10634 10628 10625 10622
10679 10683 10684 10690 10696 10697 10701 10701 10699 10698 10695 10692 10689 10686 10683 10682 10679 10675 10672 10668 10666 10662 10659 10657 10655 10653 10651 10648 10645 10643 10643 10642 10642 10643 10645 10645 10645 10645 10644 10641 10640 10635 10631 10627
10665 10670 10670 10683 10686 10692 10696 10696 10695 10693 10689 10687 10681 10679 10679 10675 10673 10669 10666 10663 10661 10658 10657 10656 10654 10652 10650 10647 10644 10643 10644 10643 10643 10644 10647 10648 10647 10648 10648 10647 10646 10642 10638 10635
10658 10660 10664 10670 10680 10686 10688 10689 10689 10687 10684 10682 10676 10674 10675 10670 10668 10665 10661 10659 10656 10655 10655 10655 10653 10651 10649 10646 10644 10643 10644 10644 10643 10645 10648 10650 10650 10651 10652 10651 10651 10648 10648 10645
10645 10649 10654 10661 10675 10676 10681 10682 10681 10682 10680 10678 10671 10668 10671 10665 10663 10661 10658 10656 10653 10653 10653 10653 10652 10650 10648 10646 10644 10643 10645 10645 10644 10646 10649 10651 10652 10653 10654 10655 10655 10655 10655 10654
10636 10636 10647 10651 10663 10671 10675 10672 10674 10675 10675 10671 10668 10663 10667 10662 10659 10657 10656 10653 10650 10651 10652 10652 10652 10649 10647 10645 10645 10644 10645 10645 10645 10646 10649 10652 10654 10656 10657 10658 10659 10659 10661 10660
10618 10637 10638 10641 10660 10663 10661 10662 10667 10668 10669 10666 10664 10659 10663 10659 10656 10654 10653 10650 10649 10649 10650 10650 10652 10649 10647 10646 10645 10645 10645 10645 10645 10645 10650 10653 10655 10657 10658 10659 10662 10663 10665 10664
10601 10615 10631 10641 10642 10643 10654 10655 10660 10662 10664 10660 10655 10653 10659 10656 10652 10651 10650 10646 10647 10649 10648 10649 10650 10649 10647 10647 10645 10645 10645 10646 10645 10645 10649 10653 10656 10656 10660 10662 10663 10665 10667 10668
10590 10609 10621 10628 10629 10638 10643 10648 10652 10657 10655 10655 10652 10648 10652 10653 10649 10650 10647 10645 10643 10646 10647 10647 10648 10647 10647 10647 10646 10645 10645 10646 10646 10646 10648 10652 10656 10657 10660 10663 10665 10667 10669 10670
10579 10600 10607 10614 10620 10628 10632 10640 10648 10650 10646 10648 10649 10643 10647 10649 10644 10645 10644 10643 10641 10642 10644 10645 10645 10646 10646 10646 10646 10645 10645 10647 10647 10647 10647 10652 10655 10658 10660 10663 10666 10668 10671 10672
10572 10583 10593 10608 10609 10608 10619 10637 10639 10640 10639 10642 10643 10637 10643 10645 10641 10642 10640 10639 10639 10640 10642 10644 10645 10644 10645 10646 10646 10645 10644 10647 10648 10648 10649 10651 10655 10657 10659 10662 10665 10667 10670 10672
10558 10567 10577 10589 10585 10594 10624 10624 10629 10630 10633 10634 10633 10635 10635 10639 10637 10636 10637 10637 10636 10637 10640 10642 10644 10645 10644 10644 10645 10646 10645 10646 10649 10651 10651 10653 10655 10657 10658 10661 10664 10666 10669 10672
10535 10549 10560 10564 10581 10597 10606 10612 10617 10621 10622 10623 10627 10629 10629 10633 10633 10629 10634 10634 10634 10634 10637 10640 10642 10644 10644 10643 10643 10644 10645 10645 10647 10650 10652 10653 10654 10656 10658 10660 10662 10664 10666 10669
10515 10529 10542 10552 10575 10588 10594 10601 10602 10608 10614 10615 10615 10620 10623 10626 10626 10622 10629 10630 10631 10631 10632 10635 10638 10641 10643 10642 10642 10642 10644 10644 10646 10647 10650 10652 10653 10654 10656 10658 10659 10661 10663 10665
10500 10510 10527 10548 10562 10573 10578 10590 10591 10600 10601 10602 10604 10611 10618 10617 10614 10623 10622 10623 10627 10627 10629 10629 10632 10637 10639 10641 10642 10642 10642 10643 10644 10646 10647 10649 10651 10653 10655 10656 10657 10659 10660 10662
10484 10497 10516 10535 10547 10559 10571 10577 10581 10582 10590 10587 10596 10602 10609 10607 10608 10613 10615 10617 10619 10623 10625 10625 10627 10631 10634 10637 10639 10641 10641 10641 10642 10643 10645 10647 10648 10650 10652 10654 10655 10656 10658 10660
10462 10483 10501 10519 10536 10545 10555 10563 10565 10572 10574 10577 10586 10594 10599 10600 10600 10605 10609 10610 10612 10616 10621 10621 10623 10626 10628 10631 10635 10638 10638 10639 10640 10641 10643 10645 10646 10647 10649 10651 10652 10653 10655 10656
10448 10469 10482 10504 10519 10532 10540 10549 10556 10561 10564 10564 10575 10585 10587 10592 10594 10595 10600 10603 10605 10609 10613 10616 10618 10620 10622 10625 10629 10635 10635 10636 10639 10639 10640 10641 10643 10645 10646 10647 10649 10650 10651 10653
10427 10452 10469 10485 10500 10512 10526 10536 10544 10548 10553 10553 10561 10570 10576 10581 10586 10588 10591 10595 10598 10602 10605 10609 10612 10613 10616 10619 10623 10629 10630 10632 10635 10638 10637 10638 10639 10640 10642 10644 10645 10646 10648 10649
10411 10429 10450 10471 10473 10496 10509 10518 10527 10534 10540 10542 10547 10556 10564 10569 10575 10578 10582 10586 10590 10594 10597 10601 10605 10607 10609 10612 10617 10622 10626 10626 10630 10633 10634 10636 10637 10638 10637 10638 10640 10641 10643 10644